Flag for Germany Weather past 2 weeks in Böblingen, Baden-Württemberg, Germany

Now
61 °F

Clear.


Feels Like: 61 °F
Forecast: 53 / 76 °F
Wind: 1 mph from North

Location: Stuttgart-Echterdingen

Current Time: Jul 26, 2014 at 1:35:19 AM

Latest Report: Jul 26, 2014 at 1:20 AM


Visibility: 10 mi

Pressure: 29.92 "Hg

Humidity: 88%

Dew point: 57 °F

Location of BöblingenLocation

Historic Weather in Böblingen — Graph

°F

Böblingen temperature yesterday

Maximum temperature yesterday: 77 °F (at 12:50 PM)
Minimum temperature yesterday: 59 °F (at 3:20 AM)
Average temperature yesterday: 67 °F

Past Weeks' High & Low Weather Summary

 TemperatureHumidityPressure
High91 °F (Jul 19, 3:50 PM)100% (Jul 11, 3:20 AM)30.21 "Hg (Jul 11, 3:20 AM)
Low57 °F (Jul 11, 1:20 AM)22% (Jul 18, 2:50 PM)29.83 "Hg (Jul 13, 4:20 PM)
Average69 °F69%29.99 "Hg
* Reported Jul 11 12:20 AM — Jul 26 12:20 AM, Böblingen, Weather by CustomWeather, © 2014

Note: Actual official high and low records may vary slightly from our data, if they occured in-between our weather recording intervals... More about our weather records

Advertising

Böblingen weather history for previous 24 hours

 ConditionsComfort  
Time TempWeatherWind HumidityBarometerVisibility
12:20 AM
Jul 26
63 °FClear.1 mph83%29.92 "Hg10 mi
11:50 PM
Jul 25
63 °FClear.5 mph83%29.92 "Hg10 mi
11:20 PM64 °FClear.2 mph83%29.92 "Hg10 mi
10:50 PM64 °FClear.5 mph83%29.92 "Hg10 mi
10:20 PM66 °FClear.2 mph73%29.92 "Hg10 mi
9:50 PM66 °FSunny.3 mph78%29.92 "Hg10 mi
9:20 PM68 °FSunny.1 mph69%29.89 "Hg10 mi
8:50 PM70 °FSunny.5 mph60%29.89 "Hg10 mi
8:20 PM72 °FPartly sunny.2 mph53%29.89 "HgN/A
7:50 PM72 °FPartly sunny.5 mph57%29.89 "HgN/A
7:20 PM72 °FBroken clouds.8 mph61%29.89 "HgN/A
6:50 PM72 °FBroken clouds.9 mph61%29.89 "HgN/A
6:20 PM75 °FScattered showers. Broken clouds.2 mph50%29.89 "HgN/A
5:50 PM75 °FThundershowers. Broken clouds.1 mph50%29.89 "HgN/A
5:20 PM75 °FPartly sunny.2 mph54%29.89 "HgN/A
4:50 PM77 °FScattered clouds.5 mph57%29.89 "HgN/A
4:20 PM75 °FScattered clouds.5 mph54%29.89 "HgN/A
3:50 PM75 °FPassing clouds.6 mph50%29.89 "HgN/A
3:20 PM75 °FPassing clouds.3 mph61%29.92 "HgN/A
2:20 PM70 °FScattered showers. Scattered clouds.3 mph73%29.92 "HgN/A
1:50 PM66 °FThunderstorms. Partly sunny.9 mph88%29.92 "HgN/A
1:20 PM75 °FThunderstorms. Scattered clouds.5 mph50%29.92 "HgN/A
12:50 PM77 °FPassing clouds.2 mph51%29.92 "HgN/A
12:20 PM75 °FPassing clouds.2 mph54%29.92 "HgN/A
11:50 AM73 °FPassing clouds.3 mph53%29.95 "HgN/A
11:20 AM73 °FPassing clouds.3 mph57%29.95 "HgN/A
10:50 AM72 °FPassing clouds.3 mph61%29.95 "HgN/A
10:20 AM70 °FSunny.1 mph69%29.95 "Hg10 mi
9:50 AM66 °FSunny.3 mph73%29.95 "Hg10 mi
9:20 AM66 °FSunny.2 mph78%29.95 "Hg10 mi
8:50 AM64 °FSunny.3 mph78%29.95 "Hg10 mi
8:20 AM63 °FSunny.3 mph88%29.95 "Hg10 mi
7:50 AM63 °FSunny.2 mph83%29.95 "Hg10 mi
7:20 AM61 °FSunny.2 mph83%29.95 "Hg10 mi
6:50 AM63 °FSunny.No wind83%29.95 "Hg10 mi
6:20 AM61 °FClear.3 mph83%29.95 "Hg10 mi
5:50 AM61 °FClear.2 mph83%29.95 "Hg10 mi
5:20 AM61 °FClear.1 mph83%29.95 "Hg10 mi
4:50 AM59 °FClear.1 mph88%29.95 "Hg10 mi
4:20 AM59 °FClear.2 mph88%29.95 "Hg10 mi
3:50 AM59 °FClear.3 mph88%29.92 "Hg10 mi
3:20 AM59 °FClear.3 mph88%29.92 "Hg10 mi
2:50 AM61 °FClear.1 mph83%29.92 "Hg10 mi
2:20 AM61 °FClear.2 mph83%29.92 "Hg10 mi
1:50 AM63 °FClear.5 mph77%29.92 "Hg10 mi
1:20 AM64 °FClear.5 mph73%29.92 "Hg10 mi
Weather by CustomWeather, © 2014

See weather overviewHow to use our weather pages